This is the latest recevied weather packets stored in our database for station/object XW7RMR. If no packets are shown the sender has not sent any weather packets the latest 1 day(s).
| Time | Temp. | Humidity | Pressure | Rain* | Wind** | Luminosity | Snow |
|---|---|---|---|---|---|---|---|
| 1778004513 | 14.44° C | 79% | 1015.6 hPa | 0 mm | 0.89 m/s, 31° | 163 W/m² | - |
| 1778004209 | 15° C | 77% | 1015.6 hPa | 0 mm | 0.45 m/s, 31° | 179 W/m² | - |
| 1778003906 | 15° C | 76% | 1015.4 hPa | 0 mm | 0 m/s | 218 W/m² | - |
| 1778003602 | 15° C | 78% | 1015.4 hPa | 0 mm | 0 m/s | 363 W/m² | - |
| 1778003299 | 15° C | 77% | 1015.5 hPa | 0 mm | 0.45 m/s, 357° | 400 W/m² | - |
| 1778002996 | 14.44° C | 79% | 1015.5 hPa | 0 mm | 0 m/s | 250 W/m² | - |
| 1778002692 | 14.44° C | 79% | 1015.5 hPa | 0 mm | 0.45 m/s, 81° | 189 W/m² | - |
| 1778002389 | 14.44° C | 80% | 1015.4 hPa | 0 mm | 0 m/s | 191 W/m² | - |
| 1778002092 | 13.89° C | 80% | 1015.5 hPa | 0 mm | 0.45 m/s, 25° | 181 W/m² | - |
| 1778001783 | 15° C | 78% | 1015.5 hPa | 0 mm | 0.45 m/s, 325° | 155 W/m² | - |
| 1778001478 | 15° C | 78% | 1015.5 hPa | 0 mm | 0 m/s | 212 W/m² | - |
| 1778001175 | 14.44° C | 80% | 1015.4 hPa | 0 mm | 0 m/s | 282 W/m² | - |
| 1778000871 | 13.89° C | 83% | 1015.3 hPa | 0 mm | 0 m/s | 318 W/m² | - |
| 1778000569 | 13.89° C | 82% | 1015.3 hPa | 0 mm | 0 m/s | 248 W/m² | - |
| 1778000264 | 13.89° C | 81% | 1015.3 hPa | 0 mm | 0.45 m/s, 285° | 160 W/m² | - |
| 1777999960 | 13.89° C | 82% | 1015.3 hPa | 0 mm | 0.45 m/s, 341° | 151 W/m² | - |
| 1777999656 | 14.44° C | 82% | 1015.1 hPa | 0 mm | 0 m/s | 146 W/m² | - |
| 1777999353 | 13.89° C | 82% | 1015.3 hPa | 0 mm | 0 m/s | 163 W/m² | - |
| 1777999051 | 13.89° C | 82% | 1015.2 hPa | 0 mm | 0.89 m/s, 112° | 246 W/m² | - |
| 1777998750 | 13.89° C | 82% | 1015.1 hPa | 0 mm | 0.89 m/s, 278° | 252 W/m² | - |
| 1777998446 | 13.89° C | 83% | 1015.2 hPa | 0 mm | 0 m/s | 248 W/m² | - |
| 1777998143 | 13.33° C | 84% | 1015.1 hPa | 0 mm | 0 m/s | 218 W/m² | - |
| 1777997840 | 13.33° C | 84% | 1015.1 hPa | 0 mm | 0.45 m/s, 138° | 220 W/m² | - |
| 1777997538 | 13.33° C | 84% | 1015.1 hPa | 0 mm | 0 m/s | 227 W/m² | - |
| 1777997235 | 13.33° C | 83% | 1015.2 hPa | 0 mm | 0.89 m/s, 260° | 204 W/m² | - |
* Rain latest hour (hover to see other rain measurements)
** Current wind speed in m/s (hover to see current wind gust speed)